• In France
  • List of Countries
  • For 7 days
  • Water Temperature
  • Satellite Maps
  • Weather Map
  • Weather Widgets
  • user-avatar
    Login

    Hourly Weather Tarin Kowt

    Today, 18 November, Saturday

    Time Temperature Precipitation Wind Pressure Humidity
    00:00 +4°C° 0 mm 0 mps 617 mmHg 44%
    01:00 +4°C° 0 mm 0 mps 616 mmHg 45%
    02:00 +3°C° 0 mm 0 mps 616 mmHg 46%
    03:00 +3°C° 0 mm 0 mps 616 mmHg 47%
    04:00 +3°C° 0 mm 0 mps 616 mmHg 47%
    05:00 +3°C° 0 mm 0 mps 617 mmHg 46%
    06:00 +3°C° 0 mm 0 mps 617 mmHg 45%
    07:00 +5°C° 0 mm 1 mps 617 mmHg 44%
    08:00 +6°C° 0 mm 1 mps 618 mmHg 40%
    09:00 +8°C° 0 mm 1 mps 619 mmHg 36%
    10:00 +10°C° 0 mm 1 mps 620 mmHg 32%
    11:00 +10°C° 0 mm 1 mps 620 mmHg 30%
    12:00 +11°C° 0 mm 1 mps 619 mmHg 29%
    13:00 +12°C° 0 mm 2 mps 619 mmHg 27%
    14:00 +12°C° 0 mm 2 mps 619 mmHg 27%
    15:00 +10°C° 0 mm 2 mps 619 mmHg 28%
    16:00 +10°C° 0 mm 2 mps 619 mmHg 28%
    17:00 +9°C° 0 mm 2 mps 619 mmHg 31%
    18:00 +9°C° 0 mm 1 mps 619 mmHg 34%
    19:00 +8°C° 0 mm 1 mps 618 mmHg 37%
    20:00 +7°C° 0 mm 1 mps 618 mmHg 38%
    21:00 +7°C° 0 mm 1 mps 618 mmHg 40%
    22:00 +5°C° 0 mm 0 mps 618 mmHg 41%
    23:00 +5°C° 0 mm 0 mps 618 mmHg 43%

    Tomorrow, 19 November, Sunday

    Time Temperature Precipitation Wind Pressure Humidity
    00:00 +4°C° 0 mm 0 mps 618 mmHg 44%
    01:00 +4°C° 0 mm 0 mps 618 mmHg 45%
    02:00 +4°C° 0 mm 0 mps 618 mmHg 45%
    03:00 +4°C° 0 mm 1 mps 617 mmHg 46%
    04:00 +4°C° 0 mm 1 mps 617 mmHg 47%
    05:00 +4°C° 0 mm 1 mps 618 mmHg 46%
    06:00 +5°C° 0 mm 1 mps 618 mmHg 44%
    07:00 +5°C° 0 mm 1 mps 619 mmHg 43%
    08:00 +7°C° 0 mm 1 mps 619 mmHg 38%
    09:00 +8°C° 0 mm 1 mps 620 mmHg 33%
    10:00 +10°C° 0 mm 1 mps 621 mmHg 28%
    11:00 +11°C° 0 mm 1 mps 621 mmHg 26%
    12:00 +12°C° 0 mm 1 mps 621 mmHg 24%
    13:00 +12°C° 0 mm 1 mps 620 mmHg 22%
    14:00 +12°C° 0 mm 2 mps 620 mmHg 22%
    15:00 +12°C° 0 mm 2 mps 620 mmHg 22%
    16:00 +12°C° 0 mm 2 mps 620 mmHg 23%
    17:00 +9°C° 0 mm 2 mps 619 mmHg 26%
    18:00 +9°C° 0 mm 1 mps 619 mmHg 29%
    19:00 +8°C° 0 mm 1 mps 619 mmHg 32%
    20:00 +7°C° 0 mm 1 mps 619 mmHg 34%
    21:00 +7°C° 0 mm 1 mps 619 mmHg 36%
    22:00 +5°C° 0 mm 0 mps 619 mmHg 38%
    23:00 +4°C° 0 mm 0 mps 618 mmHg 39%

    Day after tomorrow, 20 November, Monday

    Time Temperature Precipitation Wind Pressure Humidity
    00:00 +4°C° 0 mm 0 mps 618 mmHg 39%
    01:00 +3°C° 0 mm 0 mps 618 mmHg 40%
    02:00 +3°C° 0 mm 0 mps 617 mmHg 41%
    03:00 +3°C° 0 mm 0 mps 617 mmHg 41%
    04:00 +2°C° 0 mm 0 mps 617 mmHg 42%
    05:00 +3°C° 0 mm 0 mps 617 mmHg 40%
    06:00 +4°C° 0 mm 1 mps 618 mmHg 39%
    07:00 +4°C° 0 mm 1 mps 618 mmHg 37%
    08:00 +5°C° 0 mm 0 mps 619 mmHg 33%
    09:00 +7°C° 0 mm 0 mps 620 mmHg 28%
    10:00 +9°C° 0 mm 0 mps 621 mmHg 24%
    11:00 +11°C° 0 mm 1 mps 620 mmHg 22%
    12:00 +12°C° 0 mm 1 mps 620 mmHg 21%
    13:00 +13°C° 0 mm 1 mps 620 mmHg 19%
    14:00 +12°C° 0 mm 1 mps 619 mmHg 19%
    15:00 +12°C° 0 mm 2 mps 619 mmHg 20%
    16:00 +12°C° 0 mm 2 mps 619 mmHg 20%
    17:00 +11°C° 0 mm 1 mps 619 mmHg 23%
    18:00 +9°C° 0 mm 1 mps 619 mmHg 26%
    19:00 +7°C° 0 mm 0 mps 618 mmHg 28%
    20:00 +7°C° 0 mm 0 mps 618 mmHg 29%
    21:00 +6°C° 0 mm 0 mps 618 mmHg 30%
    22:00 +6°C° 0 mm 0 mps 618 mmHg 31%
    23:00 +5°C° 0 mm 0 mps 618 mmHg 32%

    21 November, Tuesday

    Time Temperature Precipitation Wind Pressure Humidity
    00:00 +5°C° 0 mm 0 mps 617 mmHg 33%
    01:00 +5°C° 0 mm 0 mps 617 mmHg 34%
    02:00 +4°C° 0 mm 0 mps 616 mmHg 34%
    03:00 +4°C° 0 mm 0 mps 616 mmHg 34%
    04:00 +4°C° 0 mm 0 mps 616 mmHg 34%
    05:00 +4°C° 0 mm 0 mps 616 mmHg 33%
    06:00 +4°C° 0 mm 0 mps 617 mmHg 32%
    07:00 +5°C° 0 mm 0 mps 617 mmHg 31%
    08:00 +6°C° 0 mm 0 mps 618 mmHg 27%
    09:00 +8°C° 0 mm 0 mps 619 mmHg 23%
    10:00 +10°C° 0 mm 0 mps 620 mmHg 19%
    11:00 +11°C° 0 mm 0 mps 619 mmHg 17%
    12:00 +13°C° 0 mm 1 mps 619 mmHg 16%
    13:00 +13°C° 0 mm 1 mps 619 mmHg 15%
    14:00 +13°C° 0 mm 1 mps 618 mmHg 15%
    15:00 +13°C° 0 mm 1 mps 618 mmHg 15%
    16:00 +13°C° 0 mm 1 mps 618 mmHg 16%
    17:00 +11°C° 0 mm 1 mps 617 mmHg 18%
    18:00 +10°C° 0 mm 1 mps 617 mmHg 20%
    19:00 +7°C° 0 mm 0 mps 617 mmHg 23%
    20:00 +7°C° 0 mm 0 mps 617 mmHg 23%
    21:00 +6°C° 0 mm 0 mps 617 mmHg 24%
    22:00 +6°C° 0 mm 0 mps 617 mmHg 25%
    23:00 +5°C° 0 mm 0 mps 616 mmHg 25%

    22 November, Wednesday

    Time Temperature Precipitation Wind Pressure Humidity
    00:00 +5°C° 0 mm 0 mps 616 mmHg 25%
    01:00 +6°C° 0 mm 1 mps 615 mmHg 24%
    02:00 +5°C° 0 mm 1 mps 615 mmHg 24%
    03:00 +5°C° 0 mm 1 mps 615 mmHg 23%
    04:00 +5°C° 0 mm 1 mps 615 mmHg 23%
    05:00 +5°C° 0 mm 1 mps 615 mmHg 22%
    06:00 +6°C° 0 mm 1 mps 616 mmHg 21%
    07:00 +6°C° 0 mm 1 mps 616 mmHg 20%
    08:00 +8°C° 0 mm 1 mps 617 mmHg 17%
    09:00 +11°C° 0 mm 1 mps 618 mmHg 14%
    10:00 +13°C° 0 mm 1 mps 619 mmHg 11%
    11:00 +14°C° 0 mm 1 mps 619 mmHg 11%
    12:00 +14°C° 0 mm 1 mps 618 mmHg 11%
    13:00 +15°C° 0 mm 1 mps 618 mmHg 10%
    14:00 +14°C° 0 mm 1 mps 618 mmHg 11%
    15:00 +14°C° 0 mm 1 mps 617 mmHg 12%
    16:00 +14°C° 0 mm 1 mps 617 mmHg 13%
    17:00 +12°C° 0 mm 0 mps 617 mmHg 14%
    18:00 +11°C° 0 mm 0 mps 617 mmHg 14%
    19:00 +10°C° 0 mm 0 mps 617 mmHg 15%
    20:00 +10°C° 0 mm 0 mps 617 mmHg 16%
    21:00 +11°C° 0 mm 1 mps 617 mmHg 16%
    22:00 +11°C° 0 mm 1 mps 617 mmHg 16%
    23:00 +10°C° 0 mm 1 mps 616 mmHg 17%

    23 November, Thursday

    Time Temperature Precipitation Wind Pressure Humidity
    00:00 +10°C° 0 mm 1 mps 616 mmHg 17%
    01:00 +9°C° 0 mm 1 mps 615 mmHg 18%
    02:00 +9°C° 0 mm 1 mps 615 mmHg 18%
    03:00 +9°C° 0 mm 1 mps 615 mmHg 18%
    04:00 +8°C° 0 mm 1 mps 615 mmHg 19%
    05:00 +8°C° 0 mm 1 mps 615 mmHg 19%
    06:00 +9°C° 0 mm 1 mps 616 mmHg 18%
    07:00 +9°C° 0 mm 1 mps 616 mmHg 18%
    08:00 +10°C° 0 mm 1 mps 617 mmHg 16%
    09:00 +12°C° 0 mm 1 mps 618 mmHg 14%
    10:00 +14°C° 0 mm 1 mps 618 mmHg 11%
    11:00 +14°C° 0 mm 1 mps 618 mmHg 11%
    12:00 +15°C° 0 mm 1 mps 618 mmHg 10%
    13:00 +15°C° 0 mm 1 mps 618 mmHg 9%
    14:00 +15°C° 0 mm 1 mps 617 mmHg 10%
    15:00 +15°C° 0 mm 1 mps 617 mmHg 11%
    16:00 +14°C° 0 mm 1 mps 617 mmHg 11%
    17:00 +13°C° 0 mm 1 mps 617 mmHg 13%
    18:00 +12°C° 0 mm 1 mps 617 mmHg 14%
    19:00 +10°C° 0 mm 1 mps 616 mmHg 16%
    20:00 +10°C° 0 mm 1 mps 616 mmHg 16%
    21:00 +9°C° 0 mm 1 mps 616 mmHg 17%
    22:00 +9°C° 0 mm 1 mps 616 mmHg 17%
    23:00 +8°C° 0 mm 1 mps 616 mmHg 18%
    Show more